Weather History for Abingdon, VA

Change the Weather History Date:

Thursday, January 10, 2013

  Actual Average (KTRI) Record (KTRI)
Temperature  
Mean Temperature 53 °F 35 °F  
Max Temperature 63 °F 45 °F 66 °F (1957)
Min Temperature 43 °F 25 °F -9 °F (1970)
Degree Days  
Heating Degree Days 12 30  
Month to date heating degree days 300  
Since 1 July heating degree days 2029  
Cooling Degree Days 0 0  
Month to date cooling degree days 0  
Year to date cooling degree days 0  
Growing Degree Days 3 (Base 50)    
Moisture  
Dew Point 48 °F    
Average Humidity 81    
Maximum Humidity 100    
Minimum Humidity 58    
Precipitation  
Precipitation 0.01 in 0.11 in 1.72 in (2008)
Month to date precipitation 1.05  
Year to date precipitation 1.05  
Snow  
Snow 0.00 in 0.10 in - ()
Month to date snowfall 1.4  
Since 1 July snowfall 4.1  
Snow Depth -    
Sea Level Pressure  
Sea Level Pressure 30.41 in    
Wind  
Wind Speed 4 mph (East)    
Max Wind Speed 14 mph    
Max Gust Speed 20 mph    
Visibility 9 miles    
Events Fog    
T = Trace of Precipitation, MM = Missing Value Source: NWS Daily Summary

Daily Weather History Graph

Daily Weather History Graph

Search for Another Location

Airport:

Trip Planner

Search our weather history database for the weather conditions in past years. The results will help you decide how hot, cold, wet, or windy it might be!

Date:

Astronomy

Jan. 10, 2013 Rise Set
Actual Time 7:40 AM EST 5:31 PM EST
Civil Twilight 7:12 AM EST 5:59 PM EST
Nautical Twilight 6:40 AM EST 6:31 PM EST
Astronomical Twilight 6:09 AM EST 7:02 PM EST
Moon 6:19 AM EST (1/10) 4:37 PM EST (1/10)
Length of Visible Light 10h 47m
Length of Day
9h 50m
Waning Crescent, 2% of the Moon is Illuminated
Jan 10
Waning Crescent
Jan 11
New
Jan 18
First Quarter
Jan 26
Full
Feb 3
Last Quarter

Hourly Weather History & Observations

Time (EST) Temp. Windchill Dew Point Humidity Pressure Visibility Wind Dir Wind Speed Gust Speed Precip Events Conditions
12:15 AM 47.5 °F - 47.5 °F 100% 30.49 in 1.5 mi Calm Calm - N/A   Overcast
12:35 AM 47.7 °F - 47.7 °F 100% 30.48 in 1.5 mi Calm Calm - N/A   Overcast
12:55 AM 48.2 °F - 48.2 °F 100% 30.48 in 2.0 mi Calm Calm - N/A   Overcast
1:15 AM 47.8 °F - 47.8 °F 100% 30.48 in 1.5 mi Calm Calm - N/A   Overcast
1:35 AM 47.7 °F - 47.7 °F 100% 30.48 in 1.2 mi Calm Calm - N/A   Overcast
1:55 AM 47.5 °F - 47.5 °F 100% 30.48 in 0.5 mi Calm Calm - N/A Fog Fog
3:35 AM 47.5 °F - 47.5 °F 100% 30.47 in 4.0 mi Calm Calm - N/A   Scattered Clouds
3:55 AM 47.3 °F - 47.3 °F 100% 30.47 in 5.0 mi East 4.6 mph - N/A   Clear
4:35 AM 46.4 °F - 46.4 °F 100% 30.45 in 5.0 mi Calm Calm - N/A   Clear
4:55 AM 45.5 °F - 45.5 °F 100% 30.45 in 7.0 mi Calm Calm - N/A   Clear
5:15 AM 46.8 °F - 46.8 °F 100% 30.45 in 10.0 mi ENE 3.5 mph - N/A   Clear
5:35 AM 46.2 °F - 46.2 °F 100% 30.45 in 10.0 mi Calm Calm - N/A   Clear
5:55 AM 46.0 °F - 46.0 °F 100% 30.45 in 10.0 mi Calm Calm - N/A   Clear
6:15 AM 45.7 °F - 45.7 °F 100% 30.45 in 10.0 mi Calm Calm - N/A   Clear
6:35 AM 44.1 °F 41.5 °F 44.1 °F 100% 30.46 in 10.0 mi East 4.6 mph - N/A   Clear
6:55 AM 46.6 °F - 44.6 °F 93% 30.47 in 10.0 mi ENE 4.6 mph - N/A   Clear
7:15 AM 43.9 °F 41.3 °F 43.5 °F 99% 30.47 in 10.0 mi East 4.6 mph - N/A   Clear
7:35 AM 47.3 °F - 44.2 °F 89% 30.47 in 10.0 mi ENE 4.6 mph - N/A   Clear
7:55 AM 45.3 °F 42.3 °F 44.1 °F 95% 30.48 in 10.0 mi East 5.8 mph - N/A   Clear
8:15 AM 45.1 °F 41.4 °F 43.3 °F 93% 30.48 in 10.0 mi East 6.9 mph - N/A   Clear
8:35 AM 46.9 °F - 42.1 °F 83% 30.48 in 10.0 mi East 5.8 mph - N/A   Clear
8:55 AM 46.4 °F 44.3 °F 42.8 °F 87% 30.48 in 10.0 mi East 4.6 mph - N/A   Clear
9:15 AM 47.7 °F - 43.2 °F 84% 30.49 in 10.0 mi East 3.5 mph - N/A   Mostly Cloudy
9:35 AM 49.1 °F - 40.3 °F 72% 30.49 in 10.0 mi East 5.8 mph - N/A   Overcast
9:55 AM 50.4 °F - 39.6 °F 66% 30.49 in 10.0 mi ENE 4.6 mph - N/A   Overcast
10:15 AM 51.8 °F - 41.4 °F 68% 30.48 in 10.0 mi East 9.2 mph - N/A   Overcast
10:35 AM 52.0 °F - 45.0 °F 77% 30.48 in 10.0 mi East 6.9 mph - N/A   Overcast
10:55 AM 53.6 °F - 44.6 °F 72% 30.47 in 10.0 mi East 8.1 mph - N/A   Overcast
11:15 AM 54.7 °F - 44.8 °F 69% 30.47 in 10.0 mi East 6.9 mph - N/A   Mostly Cloudy
11:55 AM 56.8 °F - 44.6 °F 64% 30.44 in 10.0 mi East 5.8 mph - N/A   Mostly Cloudy
12:15 PM 59.4 °F - 45.9 °F 61% 30.43 in 10.0 mi East 8.1 mph - N/A   Mostly Cloudy
12:35 PM 61.3 °F - 47.5 °F 60% 30.42 in 10.0 mi East 9.2 mph - N/A   Scattered Clouds
12:55 PM 62.6 °F - 47.5 °F 58% 30.41 in 10.0 mi East 10.4 mph - N/A   Scattered Clouds
1:15 PM 61.3 °F - 47.8 °F 61% 30.39 in 10.0 mi East 8.1 mph - N/A   Scattered Clouds
1:35 PM 62.4 °F - 48.9 °F 61% 30.38 in 10.0 mi East 9.2 mph - N/A   Overcast
1:55 PM 62.8 °F - 49.5 °F 62% 30.37 in 10.0 mi ESE 8.1 mph - N/A   Scattered Clouds
2:15 PM 62.6 °F - 50.0 °F 63% 30.37 in 10.0 mi East 10.4 mph - N/A   Clear
2:35 PM 63.5 °F - 50.2 °F 62% 30.37 in 10.0 mi East 10.4 mph - N/A   Scattered Clouds
2:55 PM 63.1 °F - 51.1 °F 65% 30.37 in 10.0 mi ESE 8.1 mph - N/A   Clear
3:15 PM 62.2 °F - 51.3 °F 67% 30.36 in 10.0 mi East 6.9 mph - N/A   Clear
4:15 PM 61.9 °F - 52.0 °F 70% 30.36 in 10.0 mi East 8.1 mph - N/A   Scattered Clouds
4:35 PM 61.0 °F - 51.8 °F 72% 30.36 in 10.0 mi East 8.1 mph - N/A   Scattered Clouds
4:55 PM 60.6 °F - 51.8 °F 73% 30.36 in 10.0 mi East 9.2 mph - N/A   Scattered Clouds
5:15 PM 60.1 °F - 51.8 °F 74% 30.36 in 10.0 mi East 8.1 mph - N/A   Scattered Clouds
5:35 PM 60.4 °F - 51.8 °F 73% 30.36 in 10.0 mi East 8.1 mph - N/A   Scattered Clouds
5:55 PM 59.9 °F - 51.8 °F 75% 30.35 in 10.0 mi East 9.2 mph - N/A   Scattered Clouds
6:15 PM 58.1 °F - 51.8 °F 80% 30.35 in 10.0 mi East 6.9 mph - N/A   Mostly Cloudy
6:35 PM 59.0 °F - 52.3 °F 79% 30.35 in 10.0 mi East 8.1 mph - N/A   Mostly Cloudy
6:55 PM 59.9 °F - 52.5 °F 77% 30.35 in 10.0 mi East 10.4 mph - N/A   Mostly Cloudy
7:15 PM 58.1 °F - 52.2 °F 81% 30.35 in 10.0 mi ESE 9.2 mph - N/A   Scattered Clouds
7:35 PM 57.6 °F - 52.2 °F 82% 30.35 in 10.0 mi East 9.2 mph - N/A   Clear
7:55 PM 57.7 °F - 51.6 °F 80% 30.35 in 10.0 mi ESE 3.5 mph - N/A   Clear
8:15 PM 57.6 °F - 51.8 °F 81% 30.35 in 10.0 mi East 3.5 mph - N/A   Scattered Clouds
8:35 PM 57.2 °F - 51.4 °F 81% 30.35 in 10.0 mi ESE 4.6 mph - N/A   Scattered Clouds
8:55 PM 58.5 °F - 51.3 °F 77% 30.35 in 10.0 mi SE 5.8 mph - N/A   Clear
9:15 PM 57.6 °F - 51.1 °F 79% 30.35 in 10.0 mi ESE 6.9 mph - N/A   Clear
9:35 PM 57.9 °F - 50.9 °F 77% 30.33 in 10.0 mi East 5.8 mph - N/A   Clear
9:55 PM 56.1 °F - 50.4 °F 81% 30.33 in 10.0 mi East 5.8 mph - N/A   Clear
10:15 PM 55.4 °F - 50.9 °F 85% 30.32 in 10.0 mi East 6.9 mph - N/A   Clear
10:35 PM 55.9 °F - 50.4 °F 82% 30.31 in 10.0 mi ESE 4.6 mph - N/A   Clear
10:55 PM 56.1 °F - 49.8 °F 79% 30.30 in 10.0 mi East 4.6 mph - N/A   Clear
11:15 PM 54.7 °F - 49.1 °F 81% 30.30 in 10.0 mi SSW 3.5 mph - N/A   Clear
11:55 PM 59.2 °F - 47.8 °F 66% 30.30 in 10.0 mi SSW 13.8 mph 19.6 mph N/A   Clear